Location: Cicognara
(44.9500°N, 10.4667°E)
Time: 06:40:00
(UTC+00:00)

Cosmos 1455 - Pass Details

Date: 20 June 2021
Orbit: 496 x 521 km, 82.5° (Epoch: 04 August)

Event Time Altitude Azimuth Distance (km) Brightness Sun altitude
Rises 20:48:20 0° 10° (N) 2,643 6.5 -13.4°
Reaches altitude 10° 20:51:27 10° 37° (NE) 1,744 5.1 -13.7°
Maximum altitude 20:53:24 14° 68° (ENE) 1,525 4.4 -13.9°
Enters shadow 20:54:55 11° 93° (E) 1,651 4.4 -14.0°
